SID,Date,Time,pH,Iron,Mn,Color,Turbidity,Analyst
25670,01/01/2003,"730       ",6.42,0.38,0.020,97,0.50, 
25671,01/02/2003,"0730      ",6.39,0.38,0.020,96,0.53, 
25672,01/03/2003,"0730      ",6.37,0.37,0.060,96,0.48, 
25673,01/04/2003,"0745      ",6.48,0.37,0.040,96,0.72, 
25674,01/05/2003,"0800      ",6.37,0.37,0.020,90,0.58, 
25675,01/06/2003,"0730      ",6.43,0.36,0.030,86,0.50, 
25676,01/07/2003,"0730      ",6.48,0.35,0.100,90,0.57, 
25677,01/08/2003,"0745      ",6.51,0.43,0.120,91,0.57, 
25678,01/09/2003,"0750      ",6.52,0.35,0.090,93,0.50, 
25679,01/10/2003,"0755      ",6.43,0.38,0.030,99,0.51, 
25680,01/11/2003,"0700      ",6.38,0.32,0.040,98,0.65, 
25681,01/12/2003,"0830      ",6.52,0.36,0.040,92,0.73, 
25682,01/13/2003,"0730      ",6.41,0.36,0.010,96,0.47, 
25683,01/14/2003,"0730      ",6.48,0.37,0.080,92,0.45, 
25684,01/15/2003,"0735      ",6.44,0.35,0.080,91,0.58, 
25685,01/16/2003,"0745      ",6.51,0.36,0.080,90,0.43, 
25686,01/17/2003,"0805      ",6.35,0.33,0.080,92,0.42, 
25687,01/18/2003,"0800      ",6.63,0.35,0.030,89,0.43, 
25688,01/19/2003,"0800      ",6.31,0.35,0.020,84,0.40, 
25689,01/20/2003,"0630      ",6.64,0.33,0.080,78,0.50, 
25690,01/21/2003,"0740      ",6.64,0.38,0.020,90,0.42, 
25691,01/22/2003,"0810      ",6.64,0.39,0.030,79,0.41, 
25692,01/23/2003,"0830      ",6.57,0.36,0.090,67,0.43, 
25693,01/24/2003,"0740      ",6.53,0.37,0.080,64,0.43, 
25694,01/25/2003,"0755      ",6.50,0.36,0.040,61,0.41, 
25695,01/26/2003,"0855      ",6.63,0.36,0.140,59,0.40, 
25696,01/27/2003,"0745      ",6.42,0.36,0.050,56,0.36, 
25697,01/28/2003,"0745      ",6.47,0.36,0.100,58,0.58, 
25698,01/29/2003,"0735      ",6.38,0.36,0.100,58,0.46, 
25699,01/30/2003,"0720      ",6.26,0.35,0.180,50,0.44, 
25700,01/31/2003,"0720      ",6.68,0.37,0.100,52,0.59, 
25701,02/01/2003,"0730      ",6.49,0.36,0.000,49,0.64, 
25702,02/02/2003,"0830      ",6.49,0.31,0.210,45,0.36, 
25703,02/03/2003,"0740      ",6.72,0.03,0.110,46,0.36, 
25704,02/04/2003,"0655      ",6.61,0.37,0.120,44,0.66, 
25705,02/05/2003,"0715      ",6.67,0.37,0.110,46,0.57, 
25706,02/06/2003,"0720      ",6.54,0.33,0.050,43,0.46, 
25707,02/07/2003,"0720      ",6.58,0.36,0.040,39,0.44, 
25708,02/08/2003,"0730      ",6.53,0.33,0.040,40,0.43, 
25709,02/09/2003,"0800      ",6.57,0.37,0.050,41,0.47, 
25710,02/10/2003,"0735      ",6.85,0.38,0.040,39,0.39, 
25711,02/11/2003,"0725      ",6.71,0.34,0.030,46,0.53, 
25712,02/12/2003,"0730      ",6.70,0.36,0.100,38,0.41, 
25713,02/13/2003,"0735      ",6.79,0.37,0.180,27,0.37, 
25714,02/14/2003,"0730      ",6.32,0.36,0.120,36,0.45, 
25715,02/15/2003,"0730      ",6.37,0.35,0.100,37,0.36, 
25716,02/16/2003,"0830      ",6.67,0.39,0.110,38,0.44, 
25717,02/17/2003,"0730      ",6.74,0.38,0.100,37,0.34, 
25718,02/18/2003,"0740      ",6.88,0.37,0.080,30,0.33, 
25719,02/19/2003,"0750      ",6.92,0.38,0.150,34,0.36, 
25720,02/20/2003,"0740      ",6.88,0.38,0.200,37,0.55, 
25721,02/21/2003,"0720      ",6.74,0.35,0.130,34,0.39, 
25722,02/22/2003,"0740      ",6.76,0.33,0.150,33,0.32, 
25723,02/23/2003,"0825      ",6.10,0.33,0.090,33,0.39, 
25724,02/24/2003,"0725      ",6.88,0.34,0.100,34,0.40, 
25725,02/25/2003,"0720      ",6.86,0.34,0.120,29,0.51, 
25726,02/26/2003,"0720      ",6.95,0.33,0.160,31,0.41, 
25727,02/27/2003,"0735      ",5.27,0.33,0.070,37,0.33, 
25728,02/28/2003,"0720      ",6.94,0.30,0.170,34,0.47, 
25729,03/01/2003,"0740      ",6.61,0.31,0.110,31,0.47, 
25730,03/02/2003,"0800      ",6.31,0.32,0.130,35,0.48, 
25731,03/03/2003,"0750      ",5.82,0.29,0.040,33,0.42, 
25732,03/04/2003,"0730      ",5.66,0.32,0.180,38,0.58, 
25733,03/05/2003,"0715      ",5.43,0.32,0.100,34,0.47, 
25734,03/06/2003,"0725      ",5.74,0.34,0.100,37,0.50, 
25735,03/07/2003,"0730      ",5.68,0.34,0.110,33,0.40, 
25736,03/08/2003,"0830      ",6.52,0.32,0.100,35,0.43, 
25737,03/09/2003,"0800      ",6.80,0.30,0.020,35,0.39, 
25738,03/10/2003,"0720      ",5.77,0.33,0.100,34,0.44, 
25739,03/11/2003,"0740      ",5.77,0.32,0.210,31,0.46, 
25740,03/12/2003,"0720      ",6.92,0.32,0.150,32,0.42, 
25741,03/13/2003,"0720      ",5.61,0.31,0.180,34,0.40, 
25742,03/14/2003,"0720      ",5.67,0.32,0.170,33,0.40, 
25743,03/15/2003,"0815      ",6.26,0.32,0.140,35,0.36, 
25744,03/16/2003,"0820      ",5.23,0.31,0.210,36,0.37, 
25745,03/17/2003,"0812      ",5.74,0.30,0.240,33,0.42, 
25746,03/18/2003,"0725      ",5.82,0.31,0.130,41,0.33, 
25747,03/19/2003,"0645      ",5.33,0.39,0.060,38,0.44, 
25748,03/20/2003,"0730      ",6.46,0.31,0.110,39,0.43, 
25749,03/21/2003,"0720      ",6.47,0.31,0.180,41,0.46, 
25750,03/22/2003,"0735      ",6.56,0.30,0.070,43,0.48, 
25751,03/23/2003,"0820      ",6.46,0.34,0.070,49,0.55, 
25752,03/24/2003,"0730      ",5.98,0.31,0.150,54,0.55, 
25753,03/25/2003,"0700      ",6.61,0.35,0.120,51,0.49, 
25754,03/26/2003,"0720      ",5.45,0.31,0.050,31,0.54, 
25755,03/27/2003,"0710      ",6.67,0.34,0.190,63,0.51, 
25756,03/28/2003,"0720      ",6.69,0.27,0.080,68,0.47, 
25757,03/29/2003,"0800      ",6.31,0.33,0.070,69,0.39, 
25758,03/30/2003,"0800      ",6.34,0.33,0.060,75,0.52, 
25759,03/31/2003,"0720      ",6.30,0.33,0.130,76,0.50, 
25760,04/01/2003,"0705      ",6.41,0.40,0.100,81,0.56, 
25761,04/02/2003,"0710      ",6.46,0.35,0.330,85,0.58, 
25762,04/03/2003,"0705      ",5.64,0.35,0.050,86,0.44, 
25763,04/04/2003,"0700      ",5.79,0.33,0.040,89,0.55, 
25764,04/05/2003,"1000      ",6.36,0.36,0.100,97,0.55, 
25765,04/06/2003,"0930      ",6.08,0.34,0.120,90,0.56, 
25766,04/07/2003,"0715      ",5.51,0.34,0.020,101,0.58, 
25767,04/08/2003,"0720      ",5.60,0.33,0.050,99,0.52, 
25768,04/09/2003,"0710      ",5.80,0.26,0.090,98,0.52, 
25769,04/10/2003,"0715      ",6.58,0.36,0.350,92,0.49, 
25770,04/11/2003,"0715      ",6.50,0.37,0.100,99,0.65, 
25771,04/12/2003,"0730      ",6.10,0.33,0.000,61,0.57, 
25772,04/13/2003,"0840      ",6.41,0.25,0.020,82,0.58, 
25773,04/14/2003,"0715      ",6.26,0.24,0.060,91,0.47, 
25774,04/15/2003,"0705      ",6.38,0.36,0.100,86,0.67, 
25775,04/16/2003,"0655      ",6.37,0.33,0.100,83,0.52, 
25776,04/17/2003,"0720      ",6.41,0.31,0.100,84,0.44, 
25777,04/18/2003,"0705      ",6.38,0.34,0.300,89,0.40, 
25778,04/19/2003,"0725      ",6.45,0.30,0.110,100,0.60, 
25779,04/20/2003,"0818      ",6.43,0.31,0.090,103,0.54, 
25780,04/21/2003,"0745      ",6.50,0.30,0.030,103,0.52, 
25781,04/22/2003,"0740      ",6.48,0.31,0.080,101,0.54, 
25782,04/23/2003,"0715      ",6.40,0.31,0.060,105,0.52, 
25783,04/24/2003,"0745      ",6.30,0.32,0.080,99,0.54, 
25784,04/25/2003,"0720      ",6.22,0.33,0.100,84,0.54, 
25785,04/26/2003,"0730      ",6.22,0.31,0.020,84,0.47, 
25786,04/27/2003,"0830      ",6.28,0.32,0.000,86,0.67, 
25787,04/28/2003,"0700      ",5.28,0.31,0.050,86,0.53, 
25788,04/29/2003,"0710      ",5.89,0.29,0.020,89,0.49, 
25789,04/30/2003,"0655      ",5.42,0.31,0.040,86,0.66, 
25790,05/01/2003,"0720      ",6.28,0.32,0.040,86,0.78, 
25791,05/02/2003,"0705      ",5.60,0.34,0.080,92,0.64, 
25792,05/03/2003,"0730      ",6.15,0.34,0.100,85,0.66, 
25793,05/04/2003,"0810      ",6.24,0.32,0.040,93,0.81, 
25794,05/05/2003,"0705      ",5.95,0.35,0.060,99,0.63, 
25795,05/06/2003,"0705      ",6.22,0.40,0.100,89,1.00, 
25796,05/07/2003,"0700      ",5.63,0.42,0.030,108,1.16, 
25797,05/08/2003,"0715      ",5.46,0.38,0.110,98,0.69, 
25798,05/09/2003,"0720      ",5.77,0.40,0.030,99,0.89, 
25799,05/10/2003,"0800      ",6.19,0.38,0.080,94,0.67, 
25800,05/11/2003,"0830      ",6.25,0.42,0.080,95,0.94, 
25801,05/12/2003,"0705      ",5.89,0.39,0.020,91,0.65, 
25802,05/13/2003,"0715      ",5.86,0.40,0.050,93,0.63, 
25803,05/14/2003,"0730      ",5.76,0.37,0.140,90,0.68, 
25804,05/15/2003,"0700      ",5.72,0.40,0.060,90,0.65, 
25805,05/16/2003,"0725      ",6.19,0.38,0.170,61,0.56, 
25806,05/17/2003,"0730      ",6.18,0.42,0.130,86,0.69, 
25807,05/18/2003,"0810      ",6.10,0.41,0.030,83,0.63, 
25808,05/19/2003,"0715      ",6.46,0.41,0.050,85,0.72, 
25809,05/20/2003,"0650      ",6.42,0.39,0.220,86,0.66, 
25810,05/21/2003,"0730      ",6.24,0.41,0.020,98,0.65, 
25811,05/22/2003,"0715      ",6.00,0.31,0.120,80,0.52, 
25812,05/23/2003,"0715      ",6.33,0.43,0.170,82,0.63, 
25813,05/24/2003,"0745      ",6.29,0.43,0.020,79,0.79, 
25814,05/25/2003,"0705      ",5.80,0.43,0.010,87,0.54, 
25815,05/26/2003,"0700      ",6.21,0.41,0.110,84,0.62, 
25816,05/27/2003,"0700      ",6.49,0.42,0.100,77,0.61, 
25817,05/28/2003,"0800      ",6.49,0.65,0.100,77,1.32, 
25818,05/29/2003,"0725      ",6.61,0.58,0.090,77,1.08, 
25819,05/30/2003,"0700      ",6.29,0.61,0.210,75,1.05, 
25820,05/31/2003,"0700      ",6.32,0.74,0.460,49,0.65, 
25821,06/01/2003,"0730      ",6.28,0.90,0.520,42,0.56, 
25822,06/02/2003,"0725      ",6.12,0.95,0.540,43,0.60, 
25823,06/03/2003,"0655      ",6.31,1.00,0.650,53,0.80, 
25824,06/04/2003,"0720      ",5.81,1.04,0.670,53,0.66, 
25825,06/05/2003,"0740      ",5.78,1.07,0.660,54,0.62, 
25826,06/06/2003,"0705      ",6.46,1.09,0.580,55,0.56, 
25827,06/07/2003,"0900      ",6.27,1.11,0.540,55,0.69, 
25828,06/08/2003,"0730      ",6.56,1.18,0.540,60,0.79, 
25829,06/09/2003,"0715      ",5.82,1.16,0.670,63,0.77, 
25830,06/10/2003,"0730      ",5.69,1.17,0.550,67,1.03, 
25831,06/11/2003,"0730      ",6.01,1.18,0.690,59,0.78, 
25832,06/12/2003,"0730      ",6.29,1.24,0.520,67,0.68, 
25833,06/13/2003,"0730      ",6.28,1.33,0.660,66,0.69, 
25834,06/14/2003,"0730      ",6.34,1.28,0.550,70,0.88, 
25835,06/15/2003,"0800      ",6.31,1.26,0.520,75,0.88, 
25836,06/16/2003,"0715      ",6.35,1.29,0.500,91,1.28, 
25837,06/17/2003,"0705      ",5.82,1.30,0.570,82,1.15, 
25838,06/18/2003,"0700      ",5.66,1.35,0.530,84,1.16, 
25839,06/19/2003,"0700      ",6.31,1.35,0.620,91,1.34, 
25840,06/20/2003,"0715      ",6.36,1.41,0.500,91,1.51, 
25841,06/21/2003,"0800      ",6.18,0.72,0.190,129,0.75, 
25842,06/22/2003,"0820      ",6.22,1.37,0.590,84,1.10, 
25843,06/23/2003,"0715      ",5.97,1.32,0.480,95,1.21, 
25844,06/24/2003,"0745      ",6.26,0.67,0.210,142,0.82, 
25845,06/25/2003,"0730      ",6.24,1.47,0.600,93,1.22, 
25846,06/26/2003,"0700      ",6.09,1.39,0.450,98,1.40, 
25847,06/27/2003,"0720      ",6.37,1.34,0.570,109,1.70, 
25848,06/28/2003,"0730      ",6.48,0.75,0.140,158,0.88, 
25849,06/29/2003,"0700      ",6.31,1.38,0.100,119,1.91, 
25850,06/30/2003,"0700      ",5.99,1.34,0.250,134,1.73, 
25851,07/01/2003,"0715      ",5.82,1.37,0.290,135,2.03, 
25852,07/02/2003,"0700      ",6.27,1.47,0.150,133,1.79, 
25853,07/03/2003,"0705      ",5.85,1.47,0.430,137,1.83, 
25854,07/04/2003,"0710      ",6.18,1.39,0.490,135,1.92, 
25855,07/05/2003,"0710      ",6.21,1.41,0.520,125,1.47, 
25856,07/06/2003,"0605      ",6.27,1.44,0.530,128,1.86, 
25857,07/07/2003,"0625      ",6.24,0.77,0.330,180,2.17, 
25858,07/08/2003,"0600      ",5.84,1.49,0.500,128,2.07, 
25859,07/09/2003,"0615      ",5.73,1.46,0.460,149,1.59, 
25860,07/10/2003,"0655      ",5.80,1.26,0.220,135,1.78, 
25861,07/11/2003,"0620      ",5.73,1.55,0.510,100,1.79, 
25862,07/12/2003,"0610      ",6.13,1.52,0.690,95,1.61, 
25863,07/13/2003,"0730      ",6.45,1.54,0.600,97,1.64, 
25864,07/14/2003,"0615      ",5.93,1.55,0.600,105,1.80, 
25865,07/15/2003,"0600      ",5.71,0.63,0.200,132,0.84, 
25866,07/16/2003,"0610      ",5.85,1.59,0.610,98,1.80, 
25867,07/17/2003,"0615      ",6.48,1.56,0.600,92,1.75, 
25868,07/18/2003,"0800      ",6.02,1.55,0.600,97,1.58, 
25869,07/19/2003,"0630      ",6.15,1.57,0.640,98,1.62, 
25870,07/20/2003,"0615      ",6.14,1.55,0.620,105,1.55, 
25871,07/21/2003,"0605      ",5.88,1.55,0.530,113,1.90, 
25872,07/22/2003,"0600      ",5.88,1.60,0.380,123,2.05, 
25873,07/23/2003,"0615      ",6.11,1.55,0.600,128,2.02, 
25874,07/24/2003,"0635      ",6.22,1.56,0.550,132,2.10, 
25875,07/25/2003,"0600      ",6.19,1.58,0.560,140,2.23, 
25876,07/26/2003,"0625      ",6.10,1.56,0.600,132,2.27, 
25877,07/27/2003,"0610      ",6.05,1.54,0.580,145,2.09, 
25878,07/28/2003,"0700      ",6.14,1.55,0.650,138,2.22, 
25879,07/29/2003,"0600      ",5.74,1.59,0.480,135,2.12, 
25880,07/30/2003,"1245      ",6.14,0.80,0.840,176,0.84, 
25881,07/31/2003,"0730      ",6.16,1.47,0.420,151,2.07, 
25882,08/01/2003,"0615      ",6.10,1.63,0.600,143,2.32, 
25883,08/02/2003,"0700      ",6.12,1.53,0.580,162,2.16, 
25884,08/03/2003,"0620      ",6.19,1.58,0.690,146,2.46, 
25885,08/04/2003,"0615      ",6.20,1.56,0.600,147,2.35, 
25886,08/05/2003,"0625      ",6.19,1.54,0.500,143,2.43, 
25887,08/06/2003,"0745      ",6.08,0.75,0.300,186,0.90, 
25888,08/07/2003,"0630      ",6.35,1.59,0.590,146,2.49, 
25889,08/08/2003,"0650      ",6.21,0.80,0.260,199,1.38, 
25890,08/09/2003,"0900      ",6.17,1.59,0.490,146,2.14, 
25891,08/10/2003,"0645      ",6.20,1.54,0.580,170,2.15, 
25892,08/11/2003,"0545      ",6.41,1.49,0.450,174,2.31, 
25893,08/12/2003,"0700      ",6.57,1.50,0.330,192,2.68, 
25894,08/13/2003,"0615      ",6.37,1.52,0.470,185,2.66, 
25895,08/14/2003,"0630      ",6.23,1.56,0.450,180,2.46, 
25896,08/15/2003,"0555      ",5.95,1.50,0.300,195,2.54, 
25897,08/16/2003,"0630      ",6.17,1.55,0.490,188,2.41, 
25898,08/17/2003,"0700      ",6.12,1.53,0.410,198,2.64, 
25899,08/18/2003,"0610      ",6.15,1.62,0.540,187,2.69, 
25900,08/19/2003,"0620      ",6.10,1.76,0.920,202,2.60, 
25901,08/20/2003,"0630      ",6.12,1.59,0.400,236,2.56, 
25902,08/21/2003,"0645      ",6.19,1.65,0.390,246,2.38, 
25903,08/22/2003,"0745      ",6.21,1.71,0.360,246,2.41, 
25904,08/23/2003,"1045      ",6.22,1.65,0.350,242,2.74, 
25905,08/24/2003,"0800      ",6.16,1.69,0.500,235,2.62, 
25906,08/25/2003,"0555      ",5.84,1.81,0.410,265,2.60, 
25907,08/26/2003,"0555      ",5.99,1.73,0.380,260,2.37, 
25908,08/27/2003,"0800      ",6.15,1.84,0.680,229,2.32, 
25909,08/28/2003,"0615      ",5.80,1.73,0.330,266,2.82, 
25910,08/29/2003,"0620      ",6.02,1.77,0.640,220,2.20, 
25911,08/30/2003,"0635      ",6.20,1.80,0.690,196,2.45, 
25912,08/31/2003,"0610      ",6.25,1.79,0.750,186,2.00, 
25913,09/01/2003,"0735      ",6.20,1.77,0.640,185,2.10, 
25914,09/02/2003,"0655      ",6.31,1.89,0.680,178,2.69, 
25915,09/03/2003,"0645      ",6.20,1.72,0.600,177,2.30, 
25916,09/04/2003,"0700      ",6.24,1.67,0.460,199,2.17, 
25917,09/05/2003,"0625      ",6.25,1.70,0.660,179,2.02, 
25918,09/06/2003,"0620      ",6.12,1.69,0.720,183,2.20, 
25919,09/07/2003,"0650      ",6.20,1.70,0.690,178,2.27, 
25920,09/08/2003,"0715      ",6.15,1.68,0.570,201,2.82, 
25921,09/09/2003,"0630      ",6.23,1.74,0.600,179,2.42, 
25922,09/10/2003,"0615      ",6.58,1.67,0.640,197,2.40, 
25923,09/11/2003,"1000      ",6.22,1.71,0.720,188,2.27, 
25924,09/12/2003,"0645      ",6.19,1.79,0.560,186,2.15, 
25925,09/13/2003,"0640      ",6.23,1.70,0.750,185,2.57, 
25926,09/14/2003,"0610      ",6.15,1.68,0.690,180,2.20, 
25927,09/15/2003,"0715      ",6.13,0.97,0.350,228,1.49, 
25928,09/16/2003,"0610      ",6.16,1.11,0.390,211,1.50, 
25929,09/17/2003,"0755      ",6.34,1.73,0.630,172,1.62, 
25930,09/18/2003,"0820      ",6.29,2.97,0.700,205,6.35, 
25931,09/19/2003,"0610      ",6.11,1.55,0.580,154,1.59, 
25932,09/20/2003,"0620      ",6.17,1.44,0.000,157,1.84, 
25933,09/21/2003,"0920      ",6.07,1.45,0.550,162,2.23, 
25934,09/22/2003,"0610      ",5.76,1.50,0.550,2,2.49, 
25935,09/23/2003,"0845      ",6.10,1.07,0.420,121,0.63, 
25936,09/24/2003,"0715      ",5.71,0.83,0.540,165,1.39, 
25937,09/25/2003,"0610      ",6.10,1.05,0.520,177,1.69, 
25938,09/26/2003,"0635      ",6.03,0.71,0.390,161,0.74, 
25939,09/27/2003,"0610      ",6.06,0.72,0.370,155,0.97, 
25940,09/28/2003,"0605      ",6.10,0.64,0.420,160,0.92, 
25941,09/29/2003,"0715      ",6.22,0.73,0.320,167,2.00, 
25942,09/30/2003,"0540      ",5.72,0.60,0.300,151,1.07, 
25943,10/01/2003,"0600      ",5.75,0.66,0.280,145,1.17, 
25944,10/02/2003,"0610      ",6.22,0.56,0.200,134,1.00, 
25945,10/03/2003,"0625      ",6.24,0.55,0.220,128,0.92, 
25946,10/04/2003,"0615      ",6.27,0.56,0.200,115,0.99, 
25947,10/05/2003,"0610      ",6.27,0.54,0.210,114,0.98, 
25948,10/06/2003,"0620      ",6.35,0.54,0.450,109,0.98, 
25949,10/07/2003,"0545      ",6.31,0.58,0.240,118,0.99, 
25950,10/08/2003,"0610      ",5.70,0.55,0.220,99,0.84, 
25951,10/09/2003,"0630      ",5.72,0.54,0.130,91,0.65, 
25952,10/10/2003,"0615      ",6.08,0.52,0.290,93,0.75, 
25953,10/11/2003,"0640      ",6.12,0.51,0.210,91,0.70, 
25954,10/12/2003,"0615      ",6.11,0.51,0.240,80,0.64, 
25955,10/13/2003,"0700      ",5.68,0.50,0.360,86,0.90, 
25956,10/14/2003,"0725      ",5.70,0.58,0.350,113,1.56, 
25957,10/15/2003,"0650      ",6.35,0.50,0.370,142,1.34, 
25958,10/16/2003,"0630      ",5.68,0.50,0.260,128,0.80, 
25959,10/17/2003,"0802      ",6.31,0.55,0.370,81,0.97, 
25960,10/18/2003,"0620      ",6.14,0.58,0.380,136,1.04, 
25961,10/19/2003,"0720      ",6.21,0.56,0.370,140,0.96, 
25962,10/20/2003,"Plant     ", , , , , 
25963,10/21/2003,"0510      ",6.14,0.56,0.380,126,1.02, 
25964,10/22/2003,"0630      ",5.60,0.58,0.210,125,0.98, 
25965,10/23/2003,"0645      ",6.30,0.63,0.190,120,1.09, 
25966,10/24/2003,"0640      ",6.20,0.59,0.350,115,0.82, 
25967,10/25/2003,"0615      ",6.54,0.57,0.390,106,0.78, 
25968,10/26/2003,"0650      ",6.14,0.56,0.330,104,0.75, 
25969,10/27/2003,"0725      ",6.23,0.60,0.150,102,1.13, 
25970,10/28/2003,"0620      ",6.13,0.61,0.100,101,0.92, 
25971,10/29/2003,"0700      ",6.11,1.72,0.780,91,1.05, 
25972,10/30/2003,"0640      ",6.29,0.59,0.210,88,0.95, 
25973,10/31/2003,"0625      ",6.16,0.33,0.180,99,0.97, 
25974,11/01/2003,"0610      ",6.34,1.61,0.760,123,1.39, 
25975,11/02/2003,"0615      ",6.23,1.63,0.750,132,1.58, 
25976,11/03/2003,"0920      ",6.48,1.64,0.860,181,4.63, 
25977,11/04/2003,"0630      ",6.39,1.69,0.700,160,2.14, 
25978,11/05/2003,"0625      ",7.14,0.60,0.750,130,2.05, 
25979,11/06/2003,"0730      ",6.17,1.70,0.720,142,2.68, 
25980,11/07/2003,"0645      ",6.21,1.63,0.670,127,1.93, 
25981,11/08/2003,"0605      ",6.28,1.53,0.770,131,2.19, 
25982,11/09/2003,"0630      ",6.19,1.65,0.790,134,2.45, 
25983,11/10/2003,"0620      ",6.14,1.68,0.810,133,2.05, 
25984,11/11/2003,"0625      ",6.03,1.72,0.750,132,2.64, 
25985,11/12/2003,"0605      ",5.80,1.63,0.530,130,2.19, 
25986,11/13/2003,"0700      ",6.07,1.59,0.690,131,2.32, 
25987,11/14/2003,"0630      ",6.10,1.55,0.740,123,2.15, 
25988,11/15/2003,"0620      ",6.17,1.53,0.670,121,2.25, 
25989,11/16/2003,"0615      ",6.20,1.50,0.750,113,1.85, 
25990,11/17/2003,"0610      ",6.17,1.61,0.620,122,2.27, 
25991,11/18/2003,"0630      ",5.80,1.56,0.650,120,1.95, 
25992,11/19/2003,"0635      ",5.75,1.55,0.650,116,1.93, 
25993,11/20/2003,"0630      ",5.74,1.60,0.730,96,1.93, 
25994,11/21/2003,"0625      ",6.17,1.60,0.810,104,2.15, 
25995,11/22/2003,"0625      ",6.20,1.54,0.760,109,2.32, 
25996,11/23/2003,"0600      ",6.23,1.54,0.750,112,2.39, 
25997,11/24/2003,"0550      ",6.13,1.58,0.660,103,2.52, 
25998,11/25/2003,"0620      ",5.81,1.63,0.450,102,2.16, 
25999,11/26/2003,"0610      ",5.90,1.40,0.600,114,2.11, 
26000,11/27/2003,"0655      ",5.80,0.81,0.400,110,1.65, 
26001,11/28/2003,"0805      ",6.17,0.69,0.330,97,1.00, 
26002,11/29/2003,"0625      ",6.15,0.61,0.350,85,0.75, 
26003,11/30/2003,"0620      ",6.12,0.70,0.510,98,0.85, 
26004,12/01/2003,"0600      ",6.13,0.61,0.260,101,0.93, 
26005,12/02/2003,"0610      ",5.64,0.55,0.260,106,0.95, 
26006,12/03/2003,"0740      ",6.12,0.58,0.390,101,0.82, 
26007,12/04/2003,"0630      ",5.91,1.15,0.350,101,1.38, 
26008,12/05/2003,"0630      ",6.16,1.10,0.550,88,1.29, 
26009,12/06/2003,"0630      ",6.14,1.10,0.490,83,1.30, 
26010,12/07/2003,"0700      ",6.18,1.15,0.380,85,1.63, 
26011,12/08/2003,"0630      ",6.19,1.08,0.530,80,1.44, 
26012,12/09/2003,"0625      ",5.72,1.04,0.520,88,1.59, 
26013,12/10/2003,"0630      ",6.10,1.05,0.500,84,1.57, 
26014,12/11/2003,"0615      ",5.79,1.08,0.520,79,1.55, 
26015,12/12/2003,"0615      ",6.11,1.04,0.470,78,1.58, 
26016,12/13/2003,"0610      ",6.22,0.95,0.580,72,1.40, 
26017,12/14/2003,"0615      ",6.46,0.95,0.550,71,1.62, 
26018,12/15/2003,"0615      ",6.28,0.95,0.470,73,1.35, 
26019,12/16/2003,"0630      ",5.74,0.97,0.480,80,1.55, 
26020,12/17/2003,"0845      ",6.23,0.95,0.490,79,1.33, 
26021,12/18/2003,"0640      ",5.69,0.94,0.410,76,1.78, 
26022,12/19/2003,"0650      ",6.28,0.91,0.520,74,1.48, 
26023,12/20/2003,"0600      ",6.22,0.97,0.410,83,1.98, 
26024,12/21/2003,"0630      ",6.20,0.99,0.490,87,1.57, 
26025,12/22/2003,"0615      ",6.20,0.93,0.520,85,1.37, 
26026,12/23/2003,"0655      ",5.65,0.89,0.360,83,1.24, 
26027,12/24/2003,"0635      ",5.72,0.87,0.070,86,1.59, 
26028,12/25/2003,"0705      ",6.14,0.95,0.380,63,1.77, 
26029,12/26/2003,"0700      ",6.28,0.89,0.370,94,1.45, 
26030,12/27/2003,"0610      ",6.39,0.84,0.410,79,1.15, 
26031,12/28/2003,"0625      ",6.32,0.85,0.320,82,1.26, 
26032,12/29/2003,"0605      ",6.36,0.96,0.280,84,1.50, 
26033,12/30/2003,"0605      ",6.34,0.86,0.270,83,1.36, 
26034,12/31/2003,"0620      ",6.35,0.87,0.300,82,1.29, 
Total Samples:, , ,364,364,364,364,364

Average Value:, , ,6.19,0.87,0.325,103.0,1.20
